Year,Month,Day,Hour,Minute,Value (Times are PST for insolation in W/m^2)
2020,02,29,00,00,0.00
2020,02,29,00,01,0.00
2020,02,29,00,02,0.00
2020,02,29,00,03,0.00
2020,02,29,00,04,0.00
2020,02,29,00,05,0.00
2020,02,29,00,06,0.00
2020,02,29,00,07,0.00
2020,02,29,00,08,0.00
2020,02,29,00,09,0.00
2020,02,29,00,10,0.00
2020,02,29,00,11,0.00
2020,02,29,00,12,0.00
2020,02,29,00,13,0.00
2020,02,29,00,14,0.00
2020,02,29,00,15,0.00
2020,02,29,00,16,0.00
2020,02,29,00,17,0.00
2020,02,29,00,18,0.00
2020,02,29,00,19,0.00
2020,02,29,00,20,0.00
2020,02,29,00,21,0.00
2020,02,29,00,22,0.00
2020,02,29,00,23,0.00
2020,02,29,00,24,0.00
2020,02,29,00,25,0.00
2020,02,29,00,26,0.00
2020,02,29,00,27,0.00
2020,02,29,00,28,0.00
2020,02,29,00,29,0.00
2020,02,29,00,30,0.00
2020,02,29,00,31,0.00
2020,02,29,00,32,0.00
2020,02,29,00,33,0.00
2020,02,29,00,34,0.00
2020,02,29,00,35,0.00
2020,02,29,00,36,0.00
2020,02,29,00,37,0.00
2020,02,29,00,38,0.00
2020,02,29,00,39,0.00
2020,02,29,00,40,0.00
2020,02,29,00,41,0.00
2020,02,29,00,42,0.00
2020,02,29,00,43,0.00
2020,02,29,00,44,0.00
2020,02,29,00,45,0.00
2020,02,29,00,46,0.00
2020,02,29,00,47,0.00
2020,02,29,00,48,0.00
2020,02,29,00,49,0.00
2020,02,29,00,50,0.00
2020,02,29,00,51,0.00
2020,02,29,00,52,0.00
2020,02,29,00,53,0.00
2020,02,29,00,54,0.00
2020,02,29,00,55,0.00
2020,02,29,00,56,0.00
2020,02,29,00,57,0.00
2020,02,29,00,58,0.00
2020,02,29,00,59,0.00
2020,02,29,01,00,0.00
2020,02,29,01,01,0.00
2020,02,29,01,02,0.00
2020,02,29,01,03,0.00
2020,02,29,01,04,0.00
2020,02,29,01,05,0.00
2020,02,29,01,06,0.00
2020,02,29,01,07,0.00
2020,02,29,01,08,0.00
2020,02,29,01,09,0.00
2020,02,29,01,10,0.00
2020,02,29,01,11,0.00
2020,02,29,01,12,0.00
2020,02,29,01,13,0.00
2020,02,29,01,14,0.00
2020,02,29,01,15,0.00
2020,02,29,01,16,0.00
2020,02,29,01,17,0.00
2020,02,29,01,18,0.00
2020,02,29,01,19,0.00
2020,02,29,01,20,0.00
2020,02,29,01,21,0.00
2020,02,29,01,22,0.00
2020,02,29,01,23,0.00
2020,02,29,01,24,0.00
2020,02,29,01,25,0.00
2020,02,29,01,26,0.00
2020,02,29,01,27,0.00
2020,02,29,01,28,0.00
2020,02,29,01,29,0.00
2020,02,29,01,30,0.00
2020,02,29,01,31,0.00
2020,02,29,01,32,0.00
2020,02,29,01,33,0.00
2020,02,29,01,34,0.00
2020,02,29,01,35,0.00
2020,02,29,01,36,0.00
2020,02,29,01,37,0.00
2020,02,29,01,38,0.00
2020,02,29,01,39,0.00
2020,02,29,01,40,0.00
2020,02,29,01,41,0.00
2020,02,29,01,42,0.00
2020,02,29,01,43,0.00
2020,02,29,01,44,0.00
2020,02,29,01,45,0.00
2020,02,29,01,46,0.00
2020,02,29,01,47,0.00
2020,02,29,01,48,0.00
2020,02,29,01,49,0.00
2020,02,29,01,50,0.00
2020,02,29,01,51,0.00
2020,02,29,01,52,0.00
2020,02,29,01,53,0.00
2020,02,29,01,54,0.00
2020,02,29,01,55,0.00
2020,02,29,01,56,0.00
2020,02,29,01,57,0.00
2020,02,29,01,58,0.00
2020,02,29,01,59,0.00
2020,02,29,02,00,0.00
2020,02,29,02,01,0.00
2020,02,29,02,02,0.00
2020,02,29,02,03,0.00
2020,02,29,02,04,0.00
2020,02,29,02,05,0.00
2020,02,29,02,06,0.00
2020,02,29,02,07,0.00
2020,02,29,02,08,0.00
2020,02,29,02,09,0.00
2020,02,29,02,10,0.00
2020,02,29,02,11,0.00
2020,02,29,02,12,0.00
2020,02,29,02,13,0.00
2020,02,29,02,14,0.00
2020,02,29,02,15,0.00
2020,02,29,02,16,0.00
2020,02,29,02,17,0.00
2020,02,29,02,18,0.00
2020,02,29,02,19,0.00
2020,02,29,02,20,0.00
2020,02,29,02,21,0.00
2020,02,29,02,22,0.00
2020,02,29,02,23,0.00
2020,02,29,02,24,0.00
2020,02,29,02,25,0.00
2020,02,29,02,26,0.00
2020,02,29,02,27,0.00
2020,02,29,02,28,0.00
2020,02,29,02,29,0.00
2020,02,29,02,30,0.00
2020,02,29,02,31,0.00
2020,02,29,02,32,0.00
2020,02,29,02,33,0.00
2020,02,29,02,34,0.00
2020,02,29,02,35,0.00
2020,02,29,02,36,0.00
2020,02,29,02,37,0.00
2020,02,29,02,38,0.00
2020,02,29,02,39,0.00
2020,02,29,02,40,0.00
2020,02,29,02,41,0.00
2020,02,29,02,42,0.00
2020,02,29,02,43,0.00
2020,02,29,02,44,0.00
2020,02,29,02,45,0.00
2020,02,29,02,46,0.00
2020,02,29,02,47,0.00
2020,02,29,02,48,0.00
2020,02,29,02,49,0.00
2020,02,29,02,50,0.00
2020,02,29,02,51,0.00
2020,02,29,02,52,0.00
2020,02,29,02,53,0.00
2020,02,29,02,54,0.00
2020,02,29,02,55,0.00
2020,02,29,02,56,0.00
2020,02,29,02,57,0.00
2020,02,29,02,58,0.00
2020,02,29,02,59,0.00
2020,02,29,03,00,0.00
2020,02,29,03,01,0.00
2020,02,29,03,02,0.00
2020,02,29,03,03,0.00
2020,02,29,03,04,0.00
2020,02,29,03,05,0.00
2020,02,29,03,06,0.00
2020,02,29,03,07,0.00
2020,02,29,03,08,0.00
2020,02,29,03,09,0.00
2020,02,29,03,10,0.00
2020,02,29,03,11,0.00
2020,02,29,03,12,0.00
2020,02,29,03,13,0.00
2020,02,29,03,14,0.00
2020,02,29,03,15,0.00
2020,02,29,03,16,0.00
2020,02,29,03,17,0.00
2020,02,29,03,18,0.00
2020,02,29,03,19,0.00
2020,02,29,03,20,0.00
2020,02,29,03,21,0.00
2020,02,29,03,22,0.00
2020,02,29,03,23,0.00
2020,02,29,03,24,0.00
2020,02,29,03,25,0.00
2020,02,29,03,26,0.00
2020,02,29,03,27,0.00
2020,02,29,03,28,0.00
2020,02,29,03,29,0.00
2020,02,29,03,30,0.00
2020,02,29,03,31,0.00
2020,02,29,03,32,0.00
2020,02,29,03,33,0.00
2020,02,29,03,34,0.00
2020,02,29,03,35,0.00
2020,02,29,03,36,0.00
2020,02,29,03,37,0.00
2020,02,29,03,38,0.00
2020,02,29,03,39,0.00
2020,02,29,03,40,0.00
2020,02,29,03,41,0.00
2020,02,29,03,42,0.00
2020,02,29,03,43,0.00
2020,02,29,03,44,0.00
2020,02,29,03,45,0.00
2020,02,29,03,46,0.00
2020,02,29,03,47,0.00
2020,02,29,03,48,0.00
2020,02,29,03,49,0.00
2020,02,29,03,50,0.00
2020,02,29,03,51,0.00
2020,02,29,03,52,0.00
2020,02,29,03,53,0.00
2020,02,29,03,54,0.00
2020,02,29,03,55,0.00
2020,02,29,03,56,0.00
2020,02,29,03,57,0.00
2020,02,29,03,58,0.00
2020,02,29,03,59,0.00
2020,02,29,04,00,0.00
2020,02,29,04,01,0.00
2020,02,29,04,02,0.00
2020,02,29,04,03,0.00
2020,02,29,04,04,0.00
2020,02,29,04,05,0.00
2020,02,29,04,06,0.00
2020,02,29,04,07,0.00
2020,02,29,04,08,0.00
2020,02,29,04,09,0.00
2020,02,29,04,10,0.00
2020,02,29,04,11,0.00
2020,02,29,04,12,0.00
2020,02,29,04,13,0.00
2020,02,29,04,14,0.00
2020,02,29,04,15,0.00
2020,02,29,04,16,0.00
2020,02,29,04,17,0.00
2020,02,29,04,18,0.00
2020,02,29,04,19,0.00
2020,02,29,04,20,0.00
2020,02,29,04,21,0.00
2020,02,29,04,22,0.00
2020,02,29,04,23,0.00
2020,02,29,04,24,0.00
2020,02,29,04,25,0.00
2020,02,29,04,26,0.00
2020,02,29,04,27,0.00
2020,02,29,04,28,0.00
2020,02,29,04,29,0.00
2020,02,29,04,30,0.00
2020,02,29,04,31,0.00
2020,02,29,04,32,0.00
2020,02,29,04,33,0.00
2020,02,29,04,34,0.00
2020,02,29,04,35,0.00
2020,02,29,04,36,0.00
2020,02,29,04,37,0.00
2020,02,29,04,38,0.00
2020,02,29,04,39,0.00
2020,02,29,04,40,0.00
2020,02,29,04,41,0.00
2020,02,29,04,42,0.00
2020,02,29,04,43,0.00
2020,02,29,04,44,0.00
2020,02,29,04,45,0.00
2020,02,29,04,46,0.00
2020,02,29,04,47,0.00
2020,02,29,04,48,0.00
2020,02,29,04,49,0.00
2020,02,29,04,50,0.00
2020,02,29,04,51,0.00
2020,02,29,04,52,0.00
2020,02,29,04,53,0.00
2020,02,29,04,54,0.00
2020,02,29,04,55,0.00
2020,02,29,04,56,0.00
2020,02,29,04,57,0.00
2020,02,29,04,58,0.00
2020,02,29,04,59,0.00
2020,02,29,05,00,0.00
2020,02,29,05,01,0.00
2020,02,29,05,02,0.00
2020,02,29,05,03,0.00
2020,02,29,05,04,0.00
2020,02,29,05,05,0.00
2020,02,29,05,06,0.00
2020,02,29,05,07,0.00
2020,02,29,05,08,0.00
2020,02,29,05,09,0.00
2020,02,29,05,10,0.00
2020,02,29,05,11,0.00
2020,02,29,05,12,0.00
2020,02,29,05,13,0.00
2020,02,29,05,14,0.00
2020,02,29,05,15,0.00
2020,02,29,05,16,0.00
2020,02,29,05,17,0.00
2020,02,29,05,18,0.00
2020,02,29,05,19,0.00
2020,02,29,05,20,0.00
2020,02,29,05,21,0.00
2020,02,29,05,22,0.00
2020,02,29,05,23,0.00
2020,02,29,05,24,0.00
2020,02,29,05,25,0.00
2020,02,29,05,26,0.00
2020,02,29,05,27,0.00
2020,02,29,05,28,0.00
2020,02,29,05,29,0.00
2020,02,29,05,30,0.00
2020,02,29,05,31,0.00
2020,02,29,05,32,0.00
2020,02,29,05,33,0.00
2020,02,29,05,34,0.00
2020,02,29,05,35,0.00
2020,02,29,05,36,0.00
2020,02,29,05,37,0.00
2020,02,29,05,38,0.00
2020,02,29,05,39,0.00
2020,02,29,05,40,0.00
2020,02,29,05,41,0.00
2020,02,29,05,42,0.00
2020,02,29,05,43,0.00
2020,02,29,05,44,0.00
2020,02,29,05,45,0.00
2020,02,29,05,46,0.00
2020,02,29,05,47,0.00
2020,02,29,05,48,0.00
2020,02,29,05,49,0.00
2020,02,29,05,50,0.00
2020,02,29,05,51,0.00
2020,02,29,05,52,0.00
2020,02,29,05,53,0.00
2020,02,29,05,54,0.00
2020,02,29,05,55,0.00
2020,02,29,05,56,0.00
2020,02,29,05,57,0.00
2020,02,29,05,58,0.00
2020,02,29,05,59,0.00
2020,02,29,06,00,0.00
2020,02,29,06,01,0.00
2020,02,29,06,02,0.00
2020,02,29,06,03,0.00
2020,02,29,06,04,0.00
2020,02,29,06,05,0.00
2020,02,29,06,06,0.00
2020,02,29,06,07,0.00
2020,02,29,06,08,0.00
2020,02,29,06,09,0.00
2020,02,29,06,10,0.00
2020,02,29,06,11,0.00
2020,02,29,06,12,0.00
2020,02,29,06,13,0.00
2020,02,29,06,14,0.00
2020,02,29,06,15,0.00
2020,02,29,06,16,0.00
2020,02,29,06,17,0.00
2020,02,29,06,18,0.00
2020,02,29,06,19,0.00
2020,02,29,06,20,0.00
2020,02,29,06,21,0.00
2020,02,29,06,22,0.00
2020,02,29,06,23,0.00
2020,02,29,06,24,0.00
2020,02,29,06,25,0.00
2020,02,29,06,26,0.00
2020,02,29,06,27,0.00
2020,02,29,06,28,0.00
2020,02,29,06,29,0.00
2020,02,29,06,30,0.00
2020,02,29,06,31,0.00
2020,02,29,06,32,0.00
2020,02,29,06,33,0.00
2020,02,29,06,34,0.00
2020,02,29,06,35,0.00
2020,02,29,06,36,0.00
2020,02,29,06,37,0.00
2020,02,29,06,38,0.00
2020,02,29,06,39,0.00
2020,02,29,06,40,0.00
2020,02,29,06,41,0.00
2020,02,29,06,42,0.00
2020,02,29,06,43,0.00
2020,02,29,06,44,0.00
2020,02,29,06,45,0.00
2020,02,29,06,46,0.00
2020,02,29,06,47,0.00
2020,02,29,06,48,0.00
2020,02,29,06,49,0.00
2020,02,29,06,50,0.00
2020,02,29,06,51,0.00
2020,02,29,06,52,0.00
2020,02,29,06,53,0.00
2020,02,29,06,54,0.00
2020,02,29,06,55,0.00
2020,02,29,06,56,0.00
2020,02,29,06,57,0.00
2020,02,29,06,58,0.00
2020,02,29,06,59,0.00
2020,02,29,07,00,0.00
2020,02,29,07,01,0.00
2020,02,29,07,02,0.00
2020,02,29,07,03,0.00
2020,02,29,07,04,0.00
2020,02,29,07,05,0.00
2020,02,29,07,06,0.00
2020,02,29,07,07,0.00
2020,02,29,07,08,0.00
2020,02,29,07,09,3.10
2020,02,29,07,10,5.00
2020,02,29,07,11,5.00
2020,02,29,07,12,5.00
2020,02,29,07,13,5.00
2020,02,29,07,14,5.70
2020,02,29,07,15,7.00
2020,02,29,07,16,7.00
2020,02,29,07,17,7.00
2020,02,29,07,18,7.00
2020,02,29,07,19,9.00
2020,02,29,07,20,9.00
2020,02,29,07,21,9.00
2020,02,29,07,22,9.00
2020,02,29,07,23,10.30
2020,02,29,07,24,11.00
2020,02,29,07,25,11.00
2020,02,29,07,26,11.00
2020,02,29,07,27,11.20
2020,02,29,07,28,12.00
2020,02,29,07,29,12.00
2020,02,29,07,30,12.00
2020,02,29,07,31,12.00
2020,02,29,07,32,12.00
2020,02,29,07,33,13.90
2020,02,29,07,34,14.00
2020,02,29,07,35,14.00
2020,02,29,07,36,14.00
2020,02,29,07,37,15.20
2020,02,29,07,38,16.00
2020,02,29,07,39,16.00
2020,02,29,07,40,16.20
2020,02,29,07,41,18.00
2020,02,29,07,42,18.00
2020,02,29,07,43,18.00
2020,02,29,07,44,18.00
2020,02,29,07,45,18.70
2020,02,29,07,46,19.00
2020,02,29,07,47,19.20
2020,02,29,07,48,21.00
2020,02,29,07,49,21.00
2020,02,29,07,50,21.00
2020,02,29,07,51,22.20
2020,02,29,07,52,23.00
2020,02,29,07,53,23.00
2020,02,29,07,54,25.00
2020,02,29,07,55,25.00
2020,02,29,07,56,26.90
2020,02,29,07,57,32.40
2020,02,29,07,58,42.60
2020,02,29,07,59,50.00
2020,02,29,08,00,41.60
2020,02,29,08,01,39.90
2020,02,29,08,02,39.20
2020,02,29,08,03,44.10
2020,02,29,08,04,55.30
2020,02,29,08,05,67.60
2020,02,29,08,06,80.10
2020,02,29,08,07,85.60
2020,02,29,08,08,88.00
2020,02,29,08,09,88.00
2020,02,29,08,10,88.70
2020,02,29,08,11,90.50
2020,02,29,08,12,92.20
2020,02,29,08,13,95.90
2020,02,29,08,14,97.90
2020,02,29,08,15,100.30
2020,02,29,08,16,104.20
2020,02,29,08,17,106.40
2020,02,29,08,18,110.90
2020,02,29,08,19,113.60
2020,02,29,08,20,116.90
2020,02,29,08,21,120.60
2020,02,29,08,22,123.40
2020,02,29,08,23,127.20
2020,02,29,08,24,129.50
2020,02,29,08,25,133.40
2020,02,29,08,26,136.30
2020,02,29,08,27,138.50
2020,02,29,08,28,141.50
2020,02,29,08,29,144.40
2020,02,29,08,30,148.20
2020,02,29,08,31,150.50
2020,02,29,08,32,154.00
2020,02,29,08,33,155.60
2020,02,29,08,34,159.00
2020,02,29,08,35,161.70
2020,02,29,08,36,165.10
2020,02,29,08,37,167.90
2020,02,29,08,38,171.30
2020,02,29,08,39,173.00
2020,02,29,08,40,175.20
2020,02,29,08,41,178.10
2020,02,29,08,42,180.70
2020,02,29,08,43,185.00
2020,02,29,08,44,186.40
2020,02,29,08,45,189.30
2020,02,29,08,46,192.50
2020,02,29,08,47,195.40
2020,02,29,08,48,198.40
2020,02,29,08,49,199.90
2020,02,29,08,50,204.10
2020,02,29,08,51,206.70
2020,02,29,08,52,209.70
2020,02,29,08,53,212.00
2020,02,29,08,54,213.60
2020,02,29,08,55,216.80
2020,02,29,08,56,219.70
2020,02,29,08,57,221.40
2020,02,29,08,58,225.40
2020,02,29,08,59,228.10
2020,02,29,09,00,231.00
2020,02,29,09,01,233.30
2020,02,29,09,02,236.20
2020,02,29,09,03,238.70
2020,02,29,09,04,241.20
2020,02,29,09,05,243.70
2020,02,29,09,06,246.70
2020,02,29,09,07,249.00
2020,02,29,09,08,250.60
2020,02,29,09,09,254.00
2020,02,29,09,10,256.70
2020,02,29,09,11,258.30
2020,02,29,09,12,262.00
2020,02,29,09,13,263.00
2020,02,29,09,14,265.90
2020,02,29,09,15,269.40
2020,02,29,09,16,271.70
2020,02,29,09,17,273.60
2020,02,29,09,18,278.20
2020,02,29,09,19,281.90
2020,02,29,09,20,286.70
2020,02,29,09,21,293.10
2020,02,29,09,22,303.50
2020,02,29,09,23,316.40
2020,02,29,09,24,328.50
2020,02,29,09,25,340.40
2020,02,29,09,26,319.20
2020,02,29,09,27,245.70
2020,02,29,09,28,233.60
2020,02,29,09,29,230.00
2020,02,29,09,30,314.40
2020,02,29,09,31,346.60
2020,02,29,09,32,336.40
2020,02,29,09,33,275.30
2020,02,29,09,34,328.30
2020,02,29,09,35,328.00
2020,02,29,09,36,329.60
2020,02,29,09,37,331.50
2020,02,29,09,38,333.70
2020,02,29,09,39,334.30
2020,02,29,09,40,338.20
2020,02,29,09,41,339.00
2020,02,29,09,42,340.90
2020,02,29,09,43,343.00
2020,02,29,09,44,346.70
2020,02,29,09,45,349.70
2020,02,29,09,46,352.00
2020,02,29,09,47,353.40
2020,02,29,09,48,355.70
2020,02,29,09,49,358.40
2020,02,29,09,50,362.40
2020,02,29,09,51,367.70
2020,02,29,09,52,305.10
2020,02,29,09,53,212.70
2020,02,29,09,54,160.00
2020,02,29,09,55,244.50
2020,02,29,09,56,401.60
2020,02,29,09,57,392.50
2020,02,29,09,58,388.00
2020,02,29,09,59,388.00
2020,02,29,10,00,395.60
2020,02,29,10,01,391.50
2020,02,29,10,02,390.00
2020,02,29,10,03,391.90
2020,02,29,10,04,394.00
2020,02,29,10,05,394.00
2020,02,29,10,06,394.00
2020,02,29,10,07,392.20
2020,02,29,10,08,394.40
2020,02,29,10,09,396.40
2020,02,29,10,10,397.00
2020,02,29,10,11,398.20
2020,02,29,10,12,400.50
2020,02,29,10,13,402.70
2020,02,29,10,14,404.20
2020,02,29,10,15,406.40
2020,02,29,10,16,408.70
2020,02,29,10,17,411.40
2020,02,29,10,18,417.10
2020,02,29,10,19,423.70
2020,02,29,10,20,426.70
2020,02,29,10,21,422.20
2020,02,29,10,22,422.00
2020,02,29,10,23,422.70
2020,02,29,10,24,425.40
2020,02,29,10,25,427.00
2020,02,29,10,26,428.50
2020,02,29,10,27,433.30
2020,02,29,10,28,442.60
2020,02,29,10,29,439.00
2020,02,29,10,30,441.20
2020,02,29,10,31,447.30
2020,02,29,10,32,452.40
2020,02,29,10,33,454.00
2020,02,29,10,34,454.00
2020,02,29,10,35,455.40
2020,02,29,10,36,459.70
2020,02,29,10,37,461.60
2020,02,29,10,38,458.10
2020,02,29,10,39,454.40
2020,02,29,10,40,454.00
2020,02,29,10,41,452.30
2020,02,29,10,42,452.20
2020,02,29,10,43,454.00
2020,02,29,10,44,454.40
2020,02,29,10,45,456.00
2020,02,29,10,46,457.00
2020,02,29,10,47,458.50
2020,02,29,10,48,460.70
2020,02,29,10,49,462.20
2020,02,29,10,50,464.40
2020,02,29,10,51,466.70
2020,02,29,10,52,469.30
2020,02,29,10,53,472.20
2020,02,29,10,54,476.70
2020,02,29,10,55,485.70
2020,02,29,10,56,500.60
2020,02,29,10,57,517.80
2020,02,29,10,58,529.00
2020,02,29,10,59,483.90
2020,02,29,11,00,446.00
2020,02,29,11,01,557.80
2020,02,29,11,02,593.00
2020,02,29,11,03,525.90
2020,02,29,11,04,606.00
2020,02,29,11,05,597.20
2020,02,29,11,06,614.30
2020,02,29,11,07,625.20
2020,02,29,11,08,609.00
2020,02,29,11,09,598.70
2020,02,29,11,10,565.80
2020,02,29,11,11,308.00
2020,02,29,11,12,420.30
2020,02,29,11,13,645.00
2020,02,29,11,14,645.00
2020,02,29,11,15,645.00
2020,02,29,11,16,311.60
2020,02,29,11,17,251.00
2020,02,29,11,18,251.00
2020,02,29,11,19,373.00
2020,02,29,11,20,618.00
2020,02,29,11,21,604.20
2020,02,29,11,22,586.60
2020,02,29,11,23,584.00
2020,02,29,11,24,538.20
2020,02,29,11,25,172.00
2020,02,29,11,26,172.00
2020,02,29,11,27,172.00
2020,02,29,11,28,140.00
2020,02,29,11,29,118.00
2020,02,29,11,30,118.00
2020,02,29,11,31,321.70
2020,02,29,11,32,380.00
2020,02,29,11,33,380.00
2020,02,29,11,34,487.40
2020,02,29,11,35,594.70
2020,02,29,11,36,589.00
2020,02,29,11,37,553.50
2020,02,29,11,38,547.00
2020,02,29,11,39,547.00
2020,02,29,11,40,418.70
2020,02,29,11,41,162.00
2020,02,29,11,42,162.00
2020,02,29,11,43,162.00
2020,02,29,11,44,162.00
2020,02,29,11,45,162.00
2020,02,29,11,46,175.10
2020,02,29,11,47,232.10
2020,02,29,11,48,239.00
2020,02,29,11,49,228.00
2020,02,29,11,50,210.70
2020,02,29,11,51,206.60
2020,02,29,11,52,169.80
2020,02,29,11,53,176.70
2020,02,29,11,54,175.30
2020,02,29,11,55,169.00
2020,02,29,11,56,169.00
2020,02,29,11,57,169.00
2020,02,29,11,58,169.00
2020,02,29,11,59,171.10
2020,02,29,12,00,188.90
2020,02,29,12,01,194.80
2020,02,29,12,02,203.10
2020,02,29,12,03,207.00
2020,02,29,12,04,202.10
2020,02,29,12,05,191.50
2020,02,29,12,06,188.90
2020,02,29,12,07,176.40
2020,02,29,12,08,183.70
2020,02,29,12,09,199.30
2020,02,29,12,10,209.30
2020,02,29,12,11,208.60
2020,02,29,12,12,195.10
2020,02,29,12,13,179.00
2020,02,29,12,14,177.20
2020,02,29,12,15,171.00
2020,02,29,12,16,172.30
2020,02,29,12,17,180.50
2020,02,29,12,18,185.00
2020,02,29,12,19,629.90
2020,02,29,12,20,681.00
2020,02,29,12,21,282.60
2020,02,29,12,22,315.30
2020,02,29,12,23,331.40
2020,02,29,12,24,287.00
2020,02,29,12,25,287.00
2020,02,29,12,26,596.20
2020,02,29,12,27,650.00
2020,02,29,12,28,560.20
2020,02,29,12,29,233.70
2020,02,29,12,30,197.40
2020,02,29,12,31,176.70
2020,02,29,12,32,176.90
2020,02,29,12,33,174.70
2020,02,29,12,34,174.00
2020,02,29,12,35,174.00
2020,02,29,12,36,350.30
2020,02,29,12,37,719.40
2020,02,29,12,38,737.00
2020,02,29,12,39,737.00
2020,02,29,12,40,737.00
2020,02,29,12,41,213.90
2020,02,29,12,42,261.00
2020,02,29,12,43,341.30
2020,02,29,12,44,372.60
2020,02,29,12,45,399.00
2020,02,29,12,46,285.70
2020,02,29,12,47,244.00
2020,02,29,12,48,237.10
2020,02,29,12,49,149.00
2020,02,29,12,50,140.30
2020,02,29,12,51,132.70
2020,02,29,12,52,123.90
2020,02,29,12,53,121.00
2020,02,29,12,54,116.90
2020,02,29,12,55,112.70
2020,02,29,12,56,105.90
2020,02,29,12,57,102.70
2020,02,29,12,58,104.00
2020,02,29,12,59,112.30
2020,02,29,13,00,125.30
2020,02,29,13,01,131.40
2020,02,29,13,02,131.60
2020,02,29,13,03,130.90
2020,02,29,13,04,141.00
2020,02,29,13,05,350.80
2020,02,29,13,06,613.00
2020,02,29,13,07,266.10
2020,02,29,13,08,152.40
2020,02,29,13,09,158.00
2020,02,29,13,10,149.60
2020,02,29,13,11,118.70
2020,02,29,13,12,118.40
2020,02,29,13,13,169.00
2020,02,29,13,14,152.40
2020,02,29,13,15,146.80
2020,02,29,13,16,164.40
2020,02,29,13,17,170.10
2020,02,29,13,18,186.10
2020,02,29,13,19,178.70
2020,02,29,13,20,169.90
2020,02,29,13,21,167.00
2020,02,29,13,22,170.40
2020,02,29,13,23,176.00
2020,02,29,13,24,178.00
2020,02,29,13,25,178.00
2020,02,29,13,26,178.00
2020,02,29,13,27,178.00
2020,02,29,13,28,141.50
2020,02,29,13,29,125.60
2020,02,29,13,30,133.70
2020,02,29,13,31,134.00
2020,02,29,13,32,130.20
2020,02,29,13,33,134.10
2020,02,29,13,34,171.70
2020,02,29,13,35,188.00
2020,02,29,13,36,188.00
2020,02,29,13,37,116.60
2020,02,29,13,38,103.80
2020,02,29,13,39,70.00
2020,02,29,13,40,70.00
2020,02,29,13,41,70.00
2020,02,29,13,42,74.90
2020,02,29,13,43,77.00
2020,02,29,13,44,527.70
2020,02,29,13,45,441.40
2020,02,29,13,46,79.00
2020,02,29,13,47,81.20
2020,02,29,13,48,84.00
2020,02,29,13,49,422.50
2020,02,29,13,50,542.70
2020,02,29,13,51,558.40
2020,02,29,13,52,472.30
2020,02,29,13,53,150.30
2020,02,29,13,54,119.70
2020,02,29,13,55,127.00
2020,02,29,13,56,466.10
2020,02,29,13,57,608.90
2020,02,29,13,58,596.60
2020,02,29,13,59,596.00
2020,02,29,14,00,596.00
2020,02,29,14,01,571.10
2020,02,29,14,02,536.40
2020,02,29,14,03,535.50
2020,02,29,14,04,540.20
2020,02,29,14,05,552.40
2020,02,29,14,06,561.00
2020,02,29,14,07,569.70
2020,02,29,14,08,576.10
2020,02,29,14,09,583.00
2020,02,29,14,10,586.50
2020,02,29,14,11,591.20
2020,02,29,14,12,597.80
2020,02,29,14,13,596.40
2020,02,29,14,14,588.00
2020,02,29,14,15,578.00
2020,02,29,14,16,568.90
2020,02,29,14,17,566.00
2020,02,29,14,18,566.00
2020,02,29,14,19,548.00
2020,02,29,14,20,546.40
2020,02,29,14,21,543.40
2020,02,29,14,22,544.90
2020,02,29,14,23,535.10
2020,02,29,14,24,529.60
2020,02,29,14,25,532.30
2020,02,29,14,26,542.60
2020,02,29,14,27,543.00
2020,02,29,14,28,445.20
2020,02,29,14,29,287.70
2020,02,29,14,30,297.00
2020,02,29,14,31,497.70
2020,02,29,14,32,566.30
2020,02,29,14,33,556.40
2020,02,29,14,34,542.30
2020,02,29,14,35,527.70
2020,02,29,14,36,511.70
2020,02,29,14,37,504.20
2020,02,29,14,38,503.70
2020,02,29,14,39,503.10
2020,02,29,14,40,493.10
2020,02,29,14,41,483.00
2020,02,29,14,42,478.30
2020,02,29,14,43,467.60
2020,02,29,14,44,463.60
2020,02,29,14,45,459.90
2020,02,29,14,46,460.70
2020,02,29,14,47,461.30
2020,02,29,14,48,464.00
2020,02,29,14,49,464.70
2020,02,29,14,50,465.00
2020,02,29,14,51,462.20
2020,02,29,14,52,456.10
2020,02,29,14,53,452.30
2020,02,29,14,54,437.00
2020,02,29,14,55,422.70
2020,02,29,14,56,420.40
2020,02,29,14,57,425.00
2020,02,29,14,58,425.00
2020,02,29,14,59,391.70
2020,02,29,15,00,372.30
2020,02,29,15,01,346.30
2020,02,29,15,02,326.60
2020,02,29,15,03,331.00
2020,02,29,15,04,310.20
2020,02,29,15,05,307.80
2020,02,29,15,06,303.00
2020,02,29,15,07,267.40
2020,02,29,15,08,211.30
2020,02,29,15,09,216.60
2020,02,29,15,10,258.60
2020,02,29,15,11,305.80
2020,02,29,15,12,261.70
2020,02,29,15,13,278.40
2020,02,29,15,14,357.90
2020,02,29,15,15,306.90
2020,02,29,15,16,286.50
2020,02,29,15,17,292.70
2020,02,29,15,18,207.10
2020,02,29,15,19,206.70
2020,02,29,15,20,183.30
2020,02,29,15,21,128.80
2020,02,29,15,22,113.00
2020,02,29,15,23,103.10
2020,02,29,15,24,107.00
2020,02,29,15,25,206.20
2020,02,29,15,26,313.00
2020,02,29,15,27,223.60
2020,02,29,15,28,252.40
2020,02,29,15,29,289.10
2020,02,29,15,30,250.30
2020,02,29,15,31,182.00
2020,02,29,15,32,167.30
2020,02,29,15,33,172.00
2020,02,29,15,34,155.20
2020,02,29,15,35,134.50
2020,02,29,15,36,136.80
2020,02,29,15,37,137.00
2020,02,29,15,38,136.30
2020,02,29,15,39,135.00
2020,02,29,15,40,134.40
2020,02,29,15,41,134.70
2020,02,29,15,42,129.00
2020,02,29,15,43,178.70
2020,02,29,15,44,169.30
2020,02,29,15,45,141.60
2020,02,29,15,46,166.30
2020,02,29,15,47,157.40
2020,02,29,15,48,136.40
2020,02,29,15,49,147.20
2020,02,29,15,50,136.60
2020,02,29,15,51,149.00
2020,02,29,15,52,139.30
2020,02,29,15,53,121.40
2020,02,29,15,54,125.40
2020,02,29,15,55,125.50
2020,02,29,15,56,121.60
2020,02,29,15,57,120.90
2020,02,29,15,58,119.10
2020,02,29,15,59,117.70
2020,02,29,16,00,120.50
2020,02,29,16,01,112.30
2020,02,29,16,02,104.80
2020,02,29,16,03,98.90
2020,02,29,16,04,90.90
2020,02,29,16,05,85.30
2020,02,29,16,06,81.70
2020,02,29,16,07,77.60
2020,02,29,16,08,73.70
2020,02,29,16,09,70.60
2020,02,29,16,10,69.10
2020,02,29,16,11,67.80
2020,02,29,16,12,75.20
2020,02,29,16,13,88.40
2020,02,29,16,14,96.10
2020,02,29,16,15,115.80
2020,02,29,16,16,160.10
2020,02,29,16,17,151.20
2020,02,29,16,18,145.90
2020,02,29,16,19,109.00
2020,02,29,16,20,143.70
2020,02,29,16,21,202.90
2020,02,29,16,22,194.30
2020,02,29,16,23,187.10
2020,02,29,16,24,188.00
2020,02,29,16,25,178.70
2020,02,29,16,26,170.10
2020,02,29,16,27,168.30
2020,02,29,16,28,168.10
2020,02,29,16,29,159.10
2020,02,29,16,30,143.10
2020,02,29,16,31,128.80
2020,02,29,16,32,134.10
2020,02,29,16,33,141.00
2020,02,29,16,34,145.70
2020,02,29,16,35,147.70
2020,02,29,16,36,171.60
2020,02,29,16,37,188.20
2020,02,29,16,38,190.00
2020,02,29,16,39,188.80
2020,02,29,16,40,163.60
2020,02,29,16,41,121.50
2020,02,29,16,42,113.20
2020,02,29,16,43,113.00
2020,02,29,16,44,99.70
2020,02,29,16,45,87.30
2020,02,29,16,46,73.90
2020,02,29,16,47,70.90
2020,02,29,16,48,83.70
2020,02,29,16,49,95.40
2020,02,29,16,50,89.10
2020,02,29,16,51,68.20
2020,02,29,16,52,60.30
2020,02,29,16,53,61.30
2020,02,29,16,54,52.10
2020,02,29,16,55,49.70
2020,02,29,16,56,50.00
2020,02,29,16,57,43.10
2020,02,29,16,58,32.30
2020,02,29,16,59,37.70
2020,02,29,17,00,32.20
2020,02,29,17,01,26.00
2020,02,29,17,02,26.00
2020,02,29,17,03,27.80
2020,02,29,17,04,28.80
2020,02,29,17,05,28.00
2020,02,29,17,06,28.00
2020,02,29,17,07,29.90
2020,02,29,17,08,30.00
2020,02,29,17,09,29.30
2020,02,29,17,10,27.10
2020,02,29,17,11,25.40
2020,02,29,17,12,23.50
2020,02,29,17,13,23.00
2020,02,29,17,14,23.00
2020,02,29,17,15,23.00
2020,02,29,17,16,23.00
2020,02,29,17,17,22.00